sat.trackr.live / text

‹ back to catalog

HULIANWANG DIGUI-64

NORAD 65170 · 2025-174G

PAYLOAD ACTIVE UNKNOWN

§ Identity

Operator
Country
PRC
Launch date
2025-08-13
Launch site
WSC
Launch vehicle
Mass (kg)
RCS (m²)

External: N2YO · Heavens-Above · Gunter

§ Orbital elements

Epoch: 2026-05-25T04:39:12.788064Z

Period
108.73 min
Inclination
86.4912°
Eccentricity
0.0001868
Mean motion
13.24404325 rev/d
Perigee alt
1,166.5 km
Apogee alt
1,169.4 km
Semi-major
7,546.1 km
B*
9.3019e-5
RAAN
259.6789°
Arg perigee
92.3395°
Mean anomaly
267.7953°
Rev number
3,774

§ Raw data

HULIANWANG DIGUI-641 65170U 25174G   26145.19389801  .00000055  00000+0  93019-4 0  99902 65170  86.4912 259.6789 0001868  92.3395 267.7953 13.24404325 37749

JSON: /api/v1/satellites/65170 · /tle

For live sub-satellite position, see the globe view (requires WebGL).

§ Visibility from observer

Set your observer location to see the next 7 days of passes ≥ 10°. The values pass through the URL so the page stays shareable.

No JS? Fill the form by hand. The geolocation button needs JavaScript.